Weather History for KMSP - September, 2013

Change the Weather History Date:

Tuesday, September 24, 2013

  Actual Average Record
Temperature  
Mean Temperature 65 °F 58 °F  
Max Temperature 76 °F 68 °F 89 °F (1935)
Min Temperature 53 °F 49 °F 30 °F (1942)
Degree Days  
Heating Degree Days 0 8  
Month to date heating degree days 52 101  
Since 1 July heating degree days 60 120  
Cooling Degree Days 0 1  
Month to date cooling degree days 113 61  
Year to date cooling degree days 962 742  
Growing Degree Days 14 (Base 50)    
Moisture  
Dew Point 51 °F    
Average Humidity 66    
Maximum Humidity 89    
Minimum Humidity 43    
Precipitation  
Precipitation 0.00 in 0.10 in 1.06 in (1934)
Month to date precipitation 1.21 2.49  
Year to date precipitation 27.65 24.66  
Snow  
Snow 0.00 in 0.00 in 0.40 in (1985)
Month to date snowfall 0.0 0.0  
Since 1 July snowfall T 0.0  
Since 1 September snowfall 0.0 0.0  
Snow Depth 0.00 in    
Sea Level Pressure  
Sea Level Pressure 29.95 in    
Wind  
Wind Speed 7 mph (ESE)    
Max Wind Speed 15 mph    
Max Gust Speed 20 mph    
Visibility 10 miles    
Events      
T = Trace of Precipitation, MM = Missing Value Source: NWS Daily Summary

Daily Weather History Graph

Daily Weather History Graph

Search for Another Location

Airport or City:

Trip Planner

Search our weather history database for the weather conditions in past years. The results will help you decide how hot, cold, wet, or windy it might be!

Date:

Astronomy

Sep. 24, 2013 Rise Set
Actual Time 7:02 AM CDT 7:06 PM CDT
Civil Twilight 6:33 AM CDT 7:35 PM CDT
Nautical Twilight 5:59 AM CDT 8:09 PM CDT
Astronomical Twilight 5:24 AM CDT 8:44 PM CDT
Moon 10:10 PM CDT (9/24) 12:30 PM CDT (9/24)
Length of Visible Light 13h 01m
Length of Day
12h 03m
Waning Gibbous, 73% of the Moon is Illuminated
Sep 24
Waning Gibbous
Sep 26
Last Quarter
Oct 4
New
Oct 11
First Quarter
Oct 18
Full

Hourly Weather History & Observations

Time (CDT) Temp. Dew Point Humidity Pressure Visibility Wind Dir Wind Speed Gust Speed Precip Events Conditions
12:53 AM 59.0 °F 51.1 °F 75% 29.94 in 10.0 mi SE 10.4 mph - N/A   Clear
1:53 AM 57.0 °F 51.1 °F 81% 29.95 in 10.0 mi SE 10.4 mph - N/A   Clear
2:53 AM 55.9 °F 50.0 °F 80% 29.95 in 10.0 mi SE 8.1 mph - N/A   Clear
3:53 AM 55.9 °F 50.0 °F 80% 29.94 in 10.0 mi SE 8.1 mph - N/A   Clear
4:53 AM 54.0 °F 50.0 °F 86% 29.94 in 10.0 mi ESE 6.9 mph - N/A   Clear
5:53 AM 54.0 °F 48.9 °F 83% 29.95 in 10.0 mi ESE 8.1 mph - N/A   Clear
6:53 AM 53.1 °F 48.9 °F 86% 29.96 in 10.0 mi ESE 6.9 mph - N/A   Partly Cloudy
7:53 AM 54.0 °F 48.9 °F 83% 29.96 in 8.0 mi ESE 8.1 mph - N/A   Partly Cloudy
8:53 AM 55.9 °F 48.9 °F 77% 29.98 in 8.0 mi SE 10.4 mph - N/A   Partly Cloudy
9:53 AM 60.1 °F 50.0 °F 69% 29.98 in 9.0 mi SE 8.1 mph - N/A   Scattered Clouds
10:53 AM 64.0 °F 51.1 °F 63% 29.98 in 10.0 mi ESE 5.8 mph - N/A   Scattered Clouds
11:53 AM 68.0 °F 52.0 °F 56% 29.96 in 10.0 mi East 6.9 mph - N/A   Scattered Clouds
12:53 PM 71.1 °F 53.1 °F 53% 29.95 in 10.0 mi East 9.2 mph - N/A   Scattered Clouds
1:53 PM 73.0 °F 52.0 °F 48% 29.94 in 10.0 mi SE 9.2 mph - N/A   Scattered Clouds
2:53 PM 73.9 °F 51.1 °F 45% 29.93 in 10.0 mi ESE 6.9 mph - N/A   Scattered Clouds
3:53 PM 75.0 °F 52.0 °F 44% 29.92 in 10.0 mi ESE 10.4 mph - N/A   Scattered Clouds
4:53 PM 75.0 °F 52.0 °F 44% 29.91 in 10.0 mi East 9.2 mph - N/A   Scattered Clouds
5:53 PM 73.0 °F 52.0 °F 48% 29.92 in 10.0 mi East 9.2 mph - N/A   Partly Cloudy
6:53 PM 71.1 °F 52.0 °F 51% 29.93 in 10.0 mi ESE 6.9 mph - N/A   Partly Cloudy
7:53 PM 69.1 °F 51.1 °F 53% 29.94 in 10.0 mi ESE 8.1 mph - N/A   Partly Cloudy
8:53 PM 64.9 °F 52.0 °F 63% 29.94 in 10.0 mi SE 6.9 mph - N/A   Clear
9:53 PM 63.0 °F 51.1 °F 65% 29.94 in 10.0 mi SE 5.8 mph - N/A   Clear
10:53 PM 62.1 °F 51.1 °F 67% 29.94 in 10.0 mi SSE 5.8 mph - N/A   Clear
11:53 PM 62.1 °F 51.1 °F 67% 29.94 in 10.0 mi Calm Calm - N/A   Clear